Albany, NY

4:37 PM EDT on October 15, 2019 (GMT -0400)
Albany International

Weather History for KALB - September, 2019

Change the Weather History Date:

Tuesday, September 17, 2019

  Actual Average Record
Temperature  
Mean Temperature 60 °F 62 °F  
Max Temperature 73 °F 72 °F 89 °F (1942)
Min Temperature 47 °F 51 °F 32 °F (1959)
Degree Days  
Heating Degree Days 5 5  
Month to date heating degree days 34 48  
Since 1 July heating degree days 36 71  
Cooling Degree Days 0 1  
Month to date cooling degree days 24 41  
Year to date cooling degree days 747 584  
Growing Degree Days 10 (Base 50)    
Moisture  
Dew Point 47 °F    
Average Humidity 67    
Maximum Humidity 93    
Minimum Humidity 40    
Precipitation  
Precipitation 0.00 in 0.11 in 1.49 in (1890)
Month to date precipitation 1.80 1.75  
Year to date precipitation 30.78 27.90  
Sea Level Pressure  
Sea Level Pressure 30.17 in    
Wind  
Wind Speed 4 mph (North)    
Max Wind Speed 12 mph    
Max Gust Speed 18 mph    
Visibility 10 miles    
Events Fog    
T = Trace of Precipitation, MM = Missing Value Source: NWS Daily Summary

Daily Weather History Graph

Daily Weather History Graph

Search for Another Location

Airport or City:

Astronomy

Sep. 17, 2019 Rise Set
Actual Time 6:36 AM EDT 7:01 PM EDT
Civil Twilight 6:08 AM EDT 7:30 PM EDT
Nautical Twilight 5:35 AM EDT 8:03 PM EDT
Astronomical Twilight 5:00 AM EDT 8:37 PM EDT
Moon 8:59 PM EDT (9/17) 9:42 AM EDT (9/17)
Length of Visible Light 13h 21m
Length of Day
12h 25m
Waning Gibbous, 89% of the Moon is Illuminated
Sep 17
Waning Gibbous
Sep 21
Last Quarter
Sep 28
New
Oct 5
First Quarter
Oct 13
Full

Hourly Weather History & Observations

Time (EDT) Temp. Dew Point Humidity Pressure Visibility Wind Dir Wind Speed Gust Speed Precip Events Conditions
12:51 AM 55.9 °F 51.1 °F 84% 30.13 in 10.0 mi Calm Calm - N/A   Clear
1:51 AM 54.0 °F 48.0 °F 80% 30.14 in 10.0 mi Calm Calm - N/A Fog Shallow Fog
2:51 AM 51.1 °F 46.0 °F 83% 30.14 in 10.0 mi Calm Calm - N/A   Partly Cloudy
3:51 AM 48.9 °F 45.0 °F 86% 30.13 in 10.0 mi Calm Calm - N/A Fog Shallow Fog
4:51 AM 48.9 °F 46.0 °F 90% 30.14 in 10.0 mi Calm Calm - N/A Fog Patches of Fog
5:51 AM 48.9 °F 46.0 °F 90% 30.16 in 10.0 mi Calm Calm - N/A   Clear
7:51 AM 52.0 °F 48.0 °F 86% 30.19 in 10.0 mi Calm Calm - N/A Fog Patches of Fog
8:51 AM 55.9 °F 48.9 °F 77% 30.20 in 10.0 mi NNE 5.8 mph - N/A   Clear
9:51 AM 61.0 °F 51.1 °F 70% 30.21 in 10.0 mi North 4.6 mph - N/A   Clear
10:51 AM 64.9 °F 48.9 °F 56% 30.20 in 10.0 mi NNW 8.1 mph - N/A   Clear
11:51 AM 66.9 °F 48.0 °F 51% 30.19 in 10.0 mi Variable 5.8 mph - N/A   Clear
12:51 PM 69.1 °F 48.0 °F 47% 30.18 in 10.0 mi Calm Calm - N/A   Partly Cloudy
1:51 PM 71.1 °F 46.9 °F 42% 30.17 in 10.0 mi WNW 4.6 mph - N/A   Partly Cloudy
2:51 PM 71.1 °F 46.0 °F 41% 30.15 in 10.0 mi Variable 4.6 mph - N/A   Partly Cloudy
3:51 PM 72.0 °F 46.0 °F 40% 30.14 in 10.0 mi Variable 4.6 mph - N/A   Partly Cloudy
4:51 PM 71.1 °F 46.9 °F 42% 30.14 in 10.0 mi NNE 9.2 mph - N/A   Partly Cloudy
5:51 PM 70.0 °F 45.0 °F 41% 30.14 in 10.0 mi NNE 8.1 mph - N/A   Partly Cloudy
6:51 PM 64.9 °F 45.0 °F 48% 30.16 in 10.0 mi NE 5.8 mph - N/A   Partly Cloudy
7:51 PM 62.1 °F 46.0 °F 56% 30.17 in 10.0 mi NNE 9.2 mph - N/A   Partly Cloudy
8:51 PM 61.0 °F 45.0 °F 56% 30.19 in 10.0 mi North 8.1 mph - N/A   Clear
9:51 PM 57.9 °F 44.1 °F 60% 30.21 in 10.0 mi NNW 5.8 mph - N/A   Clear
10:51 PM 55.9 °F 45.0 °F 67% 30.22 in 10.0 mi NNW 5.8 mph - N/A   Clear
11:51 PM 54.0 °F 45.0 °F 72% 30.23 in 10.0 mi North 4.6 mph - N/A   Clear